User: anonymous   Login
Location: Unspecified
(0.0000°N, 0.0000°E)
Time: 03:35:14
(UTC+00:00)
Language:

IDEFIX/ARIANE 42P - Orbit

View from above orbital plane
View from above orbital plane
View from above satellite
View from above satellite

Ground track
Ground track

The orbit data is extracted from the following two-line orbital elements,

1 27422U 02021B   17112.92406450 -.00000003 +00000-0 +14601-4 0  9994
2 27422 098.2299 116.2553 0013213 045.0497 315.1755 14.29252421780677
Epoch (UTC): 22 April 2017 22:10:39
Eccentricity: 0.0013213
inclination: 98.2299°
perigee height: 785 km
apogee height: 804 km
right ascension of ascending node: 116.2553°
argument of perigee: 45.0497°
revolutions per day: 14.29252421
mean anomaly at epoch: 315.1755°
orbit number at epoch: 78067

The dashed part of the orbit path shows where the satellite is in the earth's shadow,  

DLR